Lubbock, TX

1:36 PM CST on November 21, 2019 (GMT -0600)
Lubbock International

Weather History for KLBB - August, 2019

Change the Weather History Date:

Monday, August 19, 2019

  Actual Average Record
Temperature  
Mean Temperature 88 °F 79 °F  
Max Temperature 102 °F 91 °F 103 °F (1994)
Min Temperature 74 °F 67 °F 57 °F (2015)
Degree Days  
Heating Degree Days 0 0  
Month to date heating degree days 0 0  
Since 1 June heating degree days 0 2  
Since 1 July heating degree days 0 0  
Cooling Degree Days 23 14  
Month to date cooling degree days 404 279  
Year to date cooling degree days 1511 1372  
Since 1 June cooling degree days 1301 1126  
Growing Degree Days 38 (Base 50)    
Moisture  
Dew Point 57 °F    
Average Humidity 39    
Maximum Humidity 60    
Minimum Humidity 18    
Precipitation  
Precipitation 0.00 in 0.05 in 0.41 in (1961)
Month to date precipitation 0.13 1.14  
Year to date precipitation 13.58 12.30  
Snow  
Snow 0.00 in 0.00 in 0.00 in (2002)
Month to date snowfall 0.0 0.0  
Since 1 June snowfall 0.0 0.0  
Since 1 July snowfall 0.0 0.0  
Snow Depth 0.00 in    
Sea Level Pressure  
Sea Level Pressure 29.83 in    
Wind  
Wind Speed 12 mph (SSE)    
Max Wind Speed 21 mph    
Max Gust Speed 26 mph    
Visibility 10 miles    
Events      
T = Trace of Precipitation, MM = Missing Value Source: NWS Daily Summary

Daily Weather History Graph

Daily Weather History Graph

Search for Another Location

Airport or City:

Astronomy

Aug. 19, 2019 Rise Set
Actual Time 7:12 AM CDT 8:29 PM CDT
Civil Twilight 6:45 AM CDT 8:55 PM CDT
Nautical Twilight 6:14 AM CDT 9:26 PM CDT
Astronomical Twilight 5:42 AM CDT 9:58 PM CDT
Moon 11:02 PM CDT (8/19) 10:45 AM CDT (8/19)
Length of Visible Light 14h 09m
Length of Day
13h 17m
Waning Gibbous, 85% of the Moon is Illuminated
Aug 19
Waning Gibbous
Aug 23
Last Quarter
Aug 30
New
Sep 5
First Quarter
Sep 13
Full

Hourly Weather History & Observations

Time (CDT) Temp. Heat Index Dew Point Humidity Pressure Visibility Wind Dir Wind Speed Gust Speed Precip Events Conditions
12:53 AM 82.0 °F 82.0 °F 57.9 °F 44% 29.78 in 10.0 mi SSE 9.2 mph - N/A   Partly Cloudy
1:53 AM 82.9 °F 82.4 °F 57.0 °F 41% 29.79 in 10.0 mi SE 11.5 mph - N/A   Scattered Clouds
2:53 AM 82.0 °F 81.6 °F 55.9 °F 41% 29.79 in 10.0 mi SE 9.2 mph - N/A   Scattered Clouds
3:53 AM 75.9 °F - 57.9 °F 54% 29.81 in 10.0 mi ESE 8.1 mph - N/A   Scattered Clouds
4:53 AM 77.0 °F - 59.0 °F 54% 29.81 in 10.0 mi SE 8.1 mph - N/A   Scattered Clouds
5:53 AM 79.0 °F - 59.0 °F 50% 29.81 in 10.0 mi South 10.4 mph - N/A   Scattered Clouds
6:53 AM 75.9 °F - 60.1 °F 58% 29.83 in 10.0 mi SE 9.2 mph - N/A   Partly Cloudy
7:53 AM 77.0 °F - 60.1 °F 56% 29.85 in 10.0 mi South 8.1 mph - N/A   Partly Cloudy
8:53 AM 82.0 °F 83.0 °F 62.1 °F 51% 29.86 in 10.0 mi South 8.1 mph - N/A   Partly Cloudy
9:53 AM 88.0 °F 87.9 °F 61.0 °F 40% 29.86 in 10.0 mi SSW 16.1 mph - N/A   Partly Cloudy
10:53 AM 91.0 °F 91.5 °F 62.1 °F 38% 29.87 in 10.0 mi SSW 13.8 mph - N/A   Partly Cloudy
11:53 AM 93.9 °F 94.8 °F 62.1 °F 35% 29.88 in 10.0 mi SSW 9.2 mph - N/A   Partly Cloudy
12:53 PM 98.1 °F 98.1 °F 60.1 °F 28% 29.87 in 10.0 mi South 17.3 mph - N/A   Scattered Clouds
1:53 PM 97.0 °F 95.0 °F 55.0 °F 24% 29.87 in 10.0 mi SSE 16.1 mph - N/A   Mostly Cloudy
2:53 PM 98.1 °F 97.7 °F 59.0 °F 27% 29.86 in 10.0 mi South 11.5 mph 18.4 mph N/A   Scattered Clouds
3:53 PM 102.0 °F 99.7 °F 53.1 °F 19% 29.84 in 10.0 mi SSE 15.0 mph - N/A   Scattered Clouds
4:53 PM 100.9 °F - 52.0 °F 19% 29.81 in 10.0 mi South 17.3 mph 21.9 mph N/A   Scattered Clouds
5:53 PM 102.0 °F - 52.0 °F 19% 29.81 in 10.0 mi South 12.7 mph - N/A   Scattered Clouds
6:53 PM 97.0 °F 94.6 °F 53.1 °F 23% 29.82 in 10.0 mi South 12.7 mph - N/A   Scattered Clouds
7:53 PM 95.0 °F 92.7 °F 54.0 °F 25% 29.82 in 10.0 mi South 9.2 mph - N/A   Mostly Cloudy
8:53 PM 91.0 °F 88.9 °F 55.0 °F 29% 29.83 in 10.0 mi South 8.1 mph - N/A   Scattered Clouds
9:53 PM 88.0 °F 86.5 °F 55.9 °F 34% 29.86 in 10.0 mi SSE 10.4 mph - N/A   Scattered Clouds
10:53 PM 86.0 °F 84.7 °F 55.9 °F 36% 29.87 in 10.0 mi SE 11.5 mph - N/A   Scattered Clouds
11:53 PM 84.9 °F 84.2 °F 57.9 °F 40% 29.88 in 10.0 mi SSE 12.7 mph - N/A   Mostly Cloudy